M I D A S
Marine Information and Data Acquisition System
Tripno 1478 of the Zeeleeuw from 2008-02-07 07:33:22 to 2008-02-07 17:20:09
Back to CruiseResearch ActivitiesStationsMapUnderway DataData graphs

EquipmentUnitsComments
TimeDGPSUTC
LatitudeDGPSDM.mWGS84
LongitudeDGPSDM.mWGS84
SpeedMeteo Stationm/sRelative wind speed
DirectionMeteo StationdegRelative wind direction
TemperatureMeteo Stationdeg CelciusAir temperature
PressureMeteo StationPaAtmospheric pressure
HumidityMeteo Station%Relative humidity
Missing or incorrect values are displayed as -999
Metereological data collected by the RV Zeeleeuw from 2008-02-07 07:30:23 to 2008-02-07 17:30:04
                                                                                    Next 1000 lines
Time Latitude Longitude Speed Direction Temperature Pressure Humidity
2008-02-07 07:30:34 51°13.664 2°55.95 -999 -999 -999 -999 -999
2008-02-07 07:30:38 51°13.665 2°55.947 -999 -999 -999 -999 -999
2008-02-07 07:30:43 51°13.666 2°55.943 -999 -999 -999 -999 -999
2008-02-07 07:30:48 51°13.667 2°55.938 -999 -999 -999 -999 -999
2008-02-07 07:30:53 51°13.668 2°55.932 -999 -999 -999 -999 -999
2008-02-07 07:30:59 51°13.67 2°55.926 -999 -999 -999 -999 -999
2008-02-07 07:31:03 51°13.67 2°55.921 -999 -999 -999 -999 -999
2008-02-07 07:31:08 51°13.671 2°55.917 -999 -999 -999 -999 -999
2008-02-07 07:31:13 51°13.672 2°55.913 -999 -999 -999 -999 -999
2008-02-07 07:31:19 51°13.672 2°55.911 -999 -999 -999 -999 -999
2008-02-07 07:31:23 51°13.672 2°55.911 -999 -999 -999 -999 -999
2008-02-07 07:31:28 51°13.672 2°55.911 -999 -999 -999 -999 -999
2008-02-07 07:31:33 51°13.672 2°55.91 -999 -999 -999 -999 -999
2008-02-07 07:31:38 51°13.672 2°55.909 -999 -999 -999 -999 -999
2008-02-07 07:31:43 51°13.672 2°55.907 -999 -999 -999 -999 -999
2008-02-07 07:31:48 51°13.673 2°55.905 -999 -999 -999 -999 -999
2008-02-07 07:31:53 51°13.674 2°55.902 -999 -999 -999 -999 -999
2008-02-07 07:31:58 51°13.674 2°55.899 -999 -999 -999 -999 -999
2008-02-07 07:32:03 51°13.675 2°55.895 -999 -999 -999 -999 -999
2008-02-07 07:32:08 51°13.676 2°55.891 -999 -999 -999 -999 -999
2008-02-07 07:32:13 51°13.676 2°55.887 -999 -999 -999 -999 -999
2008-02-07 07:32:18 51°13.677 2°55.883 -999 -999 -999 -999 -999
2008-02-07 07:32:23 51°13.678 2°55.878 -999 -999 -999 -999 -999
2008-02-07 07:32:28 51°13.679 2°55.873 -999 -999 -999 -999 -999
2008-02-07 07:32:33 51°13.681 2°55.867 -999 -999 -999 -999 -999
2008-02-07 07:32:38 51°13.682 2°55.861 -999 -999 -999 -999 -999
2008-02-07 07:32:43 51°13.684 2°55.854 -999 -999 -999 -999 -999
2008-02-07 07:32:48 51°13.686 2°55.848 -999 -999 -999 -999 -999
2008-02-07 07:32:54 51°13.689 2°55.84 -999 -999 -999 -999 -999
2008-02-07 07:32:59 51°13.692 2°55.832 -999 -999 -999 -999 -999
2008-02-07 07:33:03 51°13.694 2°55.826 -999 -999 -999 -999 -999
2008-02-07 07:33:08 51°13.697 2°55.819 -999 -999 -999 -999 -999
2008-02-07 07:33:13 51°13.7 2°55.811 -999 -999 -999 -999 -999
2008-02-07 07:33:19 51°13.704 2°55.801 -999 -999 -999 -999 -999
2008-02-07 07:33:23 51°13.707 2°55.795 -999 -999 -999 -999 -999
2008-02-07 07:33:28 51°13.711 2°55.787 -999 -999 -999 -999 -999
2008-02-07 07:33:33 51°13.714 2°55.778 -999 -999 -999 -999 -999
2008-02-07 07:33:38 51°13.718 2°55.77 -999 -999 -999 -999 -999
2008-02-07 07:33:43 51°13.722 2°55.762 -999 -999 -999 -999 -999
2008-02-07 07:33:48 51°13.727 2°55.755 -999 -999 -999 -999 -999
2008-02-07 07:33:53 51°13.731 2°55.747 -999 -999 -999 -999 -999
2008-02-07 07:33:58 51°13.735 2°55.739 -999 -999 -999 -999 -999
2008-02-07 07:34:03 51°13.74 2°55.731 -999 -999 -999 -999 -999
2008-02-07 07:34:09 51°13.745 2°55.722 -999 -999 -999 -999 -999
2008-02-07 07:34:13 51°13.748 2°55.716 -999 -999 -999 -999 -999
2008-02-07 07:34:18 51°13.753 2°55.709 -999 -999 -999 -999 -999
2008-02-07 07:34:23 51°13.758 2°55.702 -999 -999 -999 -999 -999
2008-02-07 07:34:29 51°13.764 2°55.694 -999 -999 -999 -999 -999
2008-02-07 07:34:34 51°13.769 2°55.687 -999 -999 -999 -999 -999
2008-02-07 07:34:38 51°13.773 2°55.682 -999 -999 -999 -999 -999
2008-02-07 07:34:43 51°13.779 2°55.675 -999 -999 -999 -999 -999
2008-02-07 07:34:48 51°13.785 2°55.669 -999 -999 -999 -999 -999
2008-02-07 07:34:53 51°13.791 2°55.664 -999 -999 -999 -999 -999
2008-02-07 07:34:58 51°13.798 2°55.658 -999 -999 -999 -999 -999
2008-02-07 07:35:03 51°13.805 2°55.653 -999 -999 -999 -999 -999
2008-02-07 07:35:08 51°13.812 2°55.649 -999 -999 -999 -999 -999
2008-02-07 07:35:13 51°13.819 2°55.645 -999 -999 -999 -999 -999
2008-02-07 07:35:18 51°13.826 2°55.642 -999 -999 -999 -999 -999
2008-02-07 07:35:23 51°13.833 2°55.639 -999 -999 -999 -999 -999
2008-02-07 07:35:28 51°13.841 2°55.637 -999 -999 -999 -999 -999
2008-02-07 07:35:33 51°13.848 2°55.636 -999 -999 -999 -999 -999
2008-02-07 07:35:39 51°13.856 2°55.635 -999 -999 -999 -999 -999
2008-02-07 07:35:43 51°13.862 2°55.634 -999 -999 -999 -999 -999
2008-02-07 07:35:48 51°13.868 2°55.635 -999 -999 -999 -999 -999
2008-02-07 07:35:53 51°13.875 2°55.635 -999 -999 -999 -999 -999
2008-02-07 07:35:58 51°13.881 2°55.637 -999 -999 -999 -999 -999
2008-02-07 07:36:04 51°13.889 2°55.638 -999 -999 -999 -999 -999
2008-02-07 07:36:08 51°13.894 2°55.64 -999 -999 -999 -999 -999
2008-02-07 07:36:13 51°13.9 2°55.643 -999 -999 -999 -999 -999
2008-02-07 07:36:18 51°13.906 2°55.646 -999 -999 -999 -999 -999
2008-02-07 07:36:23 51°13.911 2°55.649 -999 -999 -999 -999 -999
2008-02-07 07:36:28 51°13.916 2°55.652 -999 -999 -999 -999 -999
2008-02-07 07:36:33 51°13.921 2°55.656 -999 -999 -999 -999 -999
2008-02-07 07:36:38 51°13.925 2°55.659 -999 -999 -999 -999 -999
2008-02-07 07:36:43 51°13.929 2°55.663 -999 -999 -999 -999 -999
2008-02-07 07:36:48 51°13.932 2°55.666 -999 -999 -999 -999 -999
2008-02-07 07:36:54 51°13.936 2°55.67 -999 -999 -999 -999 -999
2008-02-07 07:36:58 51°13.938 2°55.671 -999 -999 -999 -999 -999
2008-02-07 07:37:03 51°13.939 2°55.671 -999 -999 -999 -999 -999
2008-02-07 07:37:08 51°13.939 2°55.67 -999 -999 -999 -999 -999
2008-02-07 07:37:13 51°13.939 2°55.667 -999 -999 -999 -999 -999
2008-02-07 07:37:18 51°13.938 2°55.663 -999 -999 -999 -999 -999
2008-02-07 07:37:23 51°13.938 2°55.656 -999 -999 -999 -999 -999
2008-02-07 07:37:28 51°13.939 2°55.65 -999 -999 -999 -999 -999
2008-02-07 07:37:33 51°13.94 2°55.644 -999 -999 -999 -999 -999
2008-02-07 07:37:38 51°13.941 2°55.638 -999 -999 -999 -999 -999
2008-02-07 07:37:43 51°13.942 2°55.632 -999 -999 -999 -999 -999
2008-02-07 07:37:48 51°13.944 2°55.626 -999 -999 -999 -999 -999
2008-02-07 07:37:53 51°13.947 2°55.62 -999 -999 -999 -999 -999
2008-02-07 07:37:58 51°13.95 2°55.614 -999 263 -999 -999 -999
2008-02-07 07:38:03 51°13.953 2°55.608 3.3 11 -999 -999 -999
2008-02-07 07:38:08 51°13.958 2°55.601 2.6 59 -999 -999 -999
2008-02-07 07:38:13 51°13.963 2°55.594 3.3 19 -999 -999 -999
2008-02-07 07:38:18 51°13.968 2°55.587 3 307 -999 -999 -999
2008-02-07 07:38:23 51°13.974 2°55.579 3 270 3.6 -999 68
2008-02-07 07:38:28 51°13.98 2°55.571 3.1 50 3.6 -999 68
2008-02-07 07:38:33 51°13.987 2°55.563 1.9 24 3.6 -999 85
2008-02-07 07:38:38 51°13.993 2°55.555 2.1 59 3.6 -999 85
2008-02-07 07:38:43 51°14.001 2°55.546 2 25 3.6 103570 85
2008-02-07 07:38:48 51°14.008 2°55.537 1.2 56 3.6 103570 85
2008-02-07 07:38:52 51°14.014 2°55.53 1.1 24 3.6 103570 85
2008-02-07 07:38:57 51°14.022 2°55.522 1 56 3.6 103570 85
2008-02-07 07:39:02 51°14.03 2°55.513 1.1 21 3.6 103560 85
2008-02-07 07:39:07 51°14.039 2°55.505 0.8 50 3.6 103560 85
2008-02-07 07:39:12 51°14.047 2°55.496 0.6 249 3.6 103560 85
2008-02-07 07:39:17 51°14.056 2°55.487 0.5 53 3.6 103560 85
2008-02-07 07:39:22 51°14.065 2°55.478 0.3 256 3.6 103560 85
2008-02-07 07:39:27 51°14.073 2°55.469 0.6 55 3.6 103560 85
2008-02-07 07:39:33 51°14.085 2°55.458 0.4 24 3.7 103550 85
2008-02-07 07:39:38 51°14.094 2°55.449 0.2 56 3.7 103550 85
2008-02-07 07:39:43 51°14.103 2°55.44 0.1 19 3.7 103550 85
2008-02-07 07:39:48 51°14.113 2°55.431 0.1 55 3.7 103550 85
2008-02-07 07:39:53 51°14.122 2°55.422 0.1 25 3.7 103550 85
2008-02-07 07:39:58 51°14.132 2°55.413 2.3 303 3.7 103550 85
2008-02-07 07:40:03 51°14.141 2°55.403 2.3 26 3.7 103550 85
2008-02-07 07:40:08 51°14.151 2°55.394 1.2 304 3.7 103550 85
2008-02-07 07:40:13 51°14.16 2°55.384 1 255 3.7 103570 85
2008-02-07 07:40:18 51°14.169 2°55.374 1 309 3.7 103570 85
2008-02-07 07:40:23 51°14.178 2°55.364 1.6 251 3.7 103550 85
2008-02-07 07:40:28 51°14.188 2°55.353 1.9 307 3.7 103550 85
2008-02-07 07:40:33 51°14.198 2°55.342 4 248 3.7 103550 85
2008-02-07 07:40:38 51°14.208 2°55.33 4.5 307 3.7 103550 85
2008-02-07 07:40:43 51°14.217 2°55.317 3.2 24 3.7 103550 85
2008-02-07 07:40:48 51°14.227 2°55.305 2.2 306 3.7 103550 85
2008-02-07 07:40:52 51°14.235 2°55.295 2.7 245 3.7 103560 85
2008-02-07 07:40:57 51°14.244 2°55.281 2.5 300 3.7 103560 85
2008-02-07 07:41:02 51°14.254 2°55.267 2.1 20 3.8 103550 85
2008-02-07 07:41:07 51°14.263 2°55.252 2.9 310 3.8 103550 85
2008-02-07 07:41:12 51°14.272 2°55.237 3.4 27 3.8 103550 85
2008-02-07 07:41:17 51°14.281 2°55.221 3.2 304 3.8 103550 85
2008-02-07 07:41:22 51°14.29 2°55.204 3.7 20 3.8 103550 85
2008-02-07 07:41:27 51°14.298 2°55.187 4.4 307 3.8 103550 85
2008-02-07 07:41:32 51°14.307 2°55.17 4.5 23 3.8 103540 85
2008-02-07 07:41:37 51°14.315 2°55.152 5 308 3.8 103540 85
2008-02-07 07:41:42 51°14.323 2°55.135 7.5 23 3.8 103550 84
2008-02-07 07:41:47 51°14.332 2°55.117 5.4 279 3.8 103550 84
2008-02-07 07:41:51 51°14.339 2°55.103 5.8 22 3.8 103540 84
2008-02-07 07:41:56 51°14.347 2°55.085 6.3 306 3.8 103540 84
2008-02-07 07:42:01 51°14.356 2°55.065 3.5 19 3.8 103540 84
2008-02-07 07:42:06 51°14.365 2°55.046 6.6 305 3.8 103540 84
2008-02-07 07:42:11 51°14.373 2°55.027 4.8 20 3.8 103550 84
2008-02-07 07:42:16 51°14.382 2°55.008 5.5 305 3.8 103550 84
2008-02-07 07:42:21 51°14.39 2°54.988 5.7 18 3.9 103540 84
2008-02-07 07:42:26 51°14.399 2°54.968 7.6 302 3.9 103540 84
2008-02-07 07:42:31 51°14.408 2°54.948 6.4 246 3.9 103540 84
2008-02-07 07:42:36 51°14.417 2°54.929 7.3 309 3.9 103540 84
2008-02-07 07:42:41 51°14.427 2°54.909 8.2 250 3.9 103540 84
2008-02-07 07:42:46 51°14.437 2°54.889 5.6 305 3.9 103540 84
2008-02-07 07:42:51 51°14.447 2°54.869 7.1 26 3.9 103530 84
2008-02-07 07:42:55 51°14.455 2°54.852 8 308 3.9 103530 84
2008-02-07 07:43:00 51°14.465 2°54.832 9.4 245 3.9 103530 84
2008-02-07 07:43:05 51°14.475 2°54.81 7 307 3.9 103530 84
2008-02-07 07:43:10 51°14.484 2°54.789 8 25 4 103530 84
2008-02-07 07:43:15 51°14.494 2°54.767 8.4 310 4 103530 84
2008-02-07 07:43:20 51°14.504 2°54.744 6.4 22 4 103530 84
2008-02-07 07:43:25 51°14.514 2°54.721 7.1 306 4 103530 84
2008-02-07 07:43:30 51°14.523 2°54.698 6.8 25 4 103520 84
2008-02-07 07:43:35 51°14.532 2°54.675 9.2 306 4 103520 84
2008-02-07 07:43:39 51°14.54 2°54.656 8.3 23 4 103520 84
2008-02-07 07:43:44 51°14.55 2°54.632 9 302 4 103520 84
2008-02-07 07:43:50 51°14.561 2°54.604 7.2 20 4.1 103520 84
2008-02-07 07:43:55 51°14.57 2°54.58 7.1 303 4.1 103520 84
2008-02-07 07:43:59 51°14.578 2°54.561 7.5 26 4.1 103520 84
2008-02-07 07:44:04 51°14.587 2°54.537 8.7 305 4.1 103520 84
2008-02-07 07:44:10 51°14.598 2°54.508 6.1 25 4.1 103520 84
2008-02-07 07:44:15 51°14.608 2°54.484 8.3 310 4.1 103520 84
2008-02-07 07:44:20 51°14.617 2°54.46 7.7 27 4.1 103520 84
2008-02-07 07:44:25 51°14.627 2°54.436 6.7 286 4.1 103520 84
2008-02-07 07:44:30 51°14.637 2°54.412 7.8 20 4.2 103520 84
2008-02-07 07:44:35 51°14.646 2°54.388 8.4 305 4.2 103520 84
2008-02-07 07:44:39 51°14.654 2°54.369 8.5 24 4.2 103520 84
2008-02-07 07:44:45 51°14.665 2°54.34 8.8 308 4.2 103520 84
2008-02-07 07:44:50 51°14.675 2°54.316 6.9 24 4.2 103520 84
2008-02-07 07:44:55 51°14.684 2°54.291 7 309 4.2 103520 84
2008-02-07 07:45:00 51°14.693 2°54.267 8.4 21 4.2 103520 84
2008-02-07 07:45:05 51°14.702 2°54.243 9.6 308 4.2 103520 84
2008-02-07 07:45:10 51°14.711 2°54.218 9.5 23 4.2 103520 84
2008-02-07 07:45:15 51°14.721 2°54.194 6.3 308 4.2 103520 84
2008-02-07 07:45:19 51°14.728 2°54.175 8.2 25 4.2 103520 84
2008-02-07 07:45:25 51°14.739 2°54.146 6.4 303 4.2 103520 84
2008-02-07 07:45:30 51°14.748 2°54.122 7.1 24 4.2 103520 83
2008-02-07 07:45:35 51°14.758 2°54.098 6.5 304 4.2 103520 83
2008-02-07 07:45:39 51°14.765 2°54.079 6.3 22 4.2 103520 83
2008-02-07 07:45:45 51°14.776 2°54.051 7.3 303 4.2 103520 83
2008-02-07 07:45:50 51°14.785 2°54.027 7.8 20 4.3 103520 83
2008-02-07 07:45:55 51°14.794 2°54.002 8.3 304 4.3 103520 83
2008-02-07 07:45:59 51°14.801 2°53.983 7.8 21 4.2 103520 83
2008-02-07 07:46:04 51°14.81 2°53.959 7.6 307 4.2 103520 83
2008-02-07 07:46:10 51°14.82 2°53.93 7.4 21 4.2 103530 83
2008-02-07 07:46:15 51°14.829 2°53.906 7.9 304 4.2 103530 83
2008-02-07 07:46:19 51°14.836 2°53.887 9.6 22 4.3 103530 83
2008-02-07 07:46:24 51°14.845 2°53.863 9.6 306 4.3 103530 83
2008-02-07 07:46:30 51°14.856 2°53.834 9.5 26 4.3 103530 83
2008-02-07 07:46:35 51°14.864 2°53.81 7.9 310 4.3 103530 83
2008-02-07 07:46:40 51°14.873 2°53.786 8 23 4.3 103520 84
2008-02-07 07:46:45 51°14.882 2°53.761 7.4 306 4.3 103520 84
2008-02-07 07:46:50 51°14.89 2°53.737 9.1 24 4.4 103530 84
2008-02-07 07:46:55 51°14.899 2°53.713 9.3 308 4.4 103530 84
2008-02-07 07:47:00 51°14.908 2°53.689 9 22 4.4 103520 84
2008-02-07 07:47:04 51°14.916 2°53.67 8 302 4.4 103520 84
2008-02-07 07:47:09 51°14.925 2°53.646 7.6 22 4.4 103520 84
2008-02-07 07:47:15 51°14.936 2°53.618 9.4 309 4.4 103520 84
2008-02-07 07:47:20 51°14.945 2°53.594 6.5 21 4.4 103520 84
2008-02-07 07:47:25 51°14.954 2°53.57 7 303 4.4 103520 84
2008-02-07 07:47:30 51°14.963 2°53.546 7.2 22 4.5 103520 84
2008-02-07 07:47:35 51°14.972 2°53.522 9.5 283 4.5 103520 84
2008-02-07 07:47:39 51°14.98 2°53.502 8.9 25 4.5 103520 84
2008-02-07 07:47:45 51°14.991 2°53.473 9.2 308 4.5 103520 84
2008-02-07 07:47:50 51°15 2°53.449 7.8 23 4.5 103520 84
2008-02-07 07:47:55 51°15.009 2°53.425 10 305 4.5 103520 84
2008-02-07 07:47:59 51°15.016 2°53.405 8.7 26 4.5 103520 84
2008-02-07 07:48:05 51°15.026 2°53.376 9.2 302 4.5 103520 84
2008-02-07 07:48:10 51°15.036 2°53.352 8.3 21 4.5 103520 84
2008-02-07 07:48:15 51°15.044 2°53.327 8.2 305 4.5 103520 84
2008-02-07 07:48:19 51°15.052 2°53.308 9.5 24 4.6 103520 84
2008-02-07 07:48:25 51°15.063 2°53.279 9.7 309 4.6 103520 84
2008-02-07 07:48:30 51°15.072 2°53.254 6.9 24 4.6 103520 84
2008-02-07 07:48:35 51°15.081 2°53.23 6.7 305 4.6 103520 84
2008-02-07 07:48:39 51°15.088 2°53.211 9 19 4.6 103520 84
2008-02-07 07:48:44 51°15.097 2°53.186 8 304 4.6 103520 84
2008-02-07 07:48:50 51°15.108 2°53.157 9.8 26 4.6 103520 84
2008-02-07 07:48:55 51°15.117 2°53.132 7.2 309 4.6 103520 84
2008-02-07 07:49:00 51°15.126 2°53.108 7 23 4.6 103520 84
2008-02-07 07:49:05 51°15.135 2°53.084 7.4 305 4.6 103520 84
2008-02-07 07:49:10 51°15.144 2°53.059 7.2 26 4.6 103520 84
2008-02-07 07:49:15 51°15.153 2°53.035 7.4 305 4.6 103520 84
2008-02-07 07:49:20 51°15.162 2°53.011 9.5 19 4.6 103520 84
2008-02-07 07:49:24 51°15.17 2°52.991 9.3 306 4.6 103520 84
2008-02-07 07:49:30 51°15.18 2°52.962 8.8 24 4.7 103530 84
2008-02-07 07:49:35 51°15.19 2°52.938 7.2 305 4.7 103530 84
2008-02-07 07:49:40 51°15.199 2°52.913 7.3 23 4.7 103530 84
2008-02-07 07:49:45 51°15.208 2°52.889 8.7 304 4.7 103530 84
2008-02-07 07:49:50 51°15.218 2°52.865 8.5 23 4.7 103520 84
2008-02-07 07:49:55 51°15.227 2°52.841 7.4 309 4.7 103520 84
2008-02-07 07:50:00 51°15.237 2°52.816 7.5 22 4.7 103530 84
2008-02-07 07:50:05 51°15.246 2°52.792 8.8 304 4.7 103530 84
2008-02-07 07:50:10 51°15.255 2°52.767 7.7 25 4.7 103520 83
2008-02-07 07:50:15 51°15.264 2°52.743 7.3 305 4.7 103520 83
2008-02-07 07:50:19 51°15.272 2°52.724 7.6 25 4.7 103530 83
2008-02-07 07:50:25 51°15.283 2°52.695 7.4 309 4.7 103530 83
2008-02-07 07:50:30 51°15.293 2°52.67 6.7 24 4.7 103520 83
2008-02-07 07:50:35 51°15.302 2°52.646 8.7 301 4.7 103520 83
2008-02-07 07:50:40 51°15.311 2°52.622 6.9 24 4.7 103520 83
2008-02-07 07:50:44 51°15.319 2°52.602 8 308 4.7 103520 83
2008-02-07 07:50:50 51°15.33 2°52.573 6.6 22 4.7 103530 83
2008-02-07 07:50:55 51°15.34 2°52.549 8.9 306 4.7 103530 83
2008-02-07 07:51:00 51°15.349 2°52.524 6.9 22 4.7 103520 83
2008-02-07 07:51:04 51°15.357 2°52.505 8.5 304 4.7 103520 83
2008-02-07 07:51:09 51°15.365 2°52.48 8.6 25 4.7 103520 83
2008-02-07 07:51:15 51°15.376 2°52.449 8.7 304 4.7 103520 83
2008-02-07 07:51:20 51°15.383 2°52.423 7.9 27 4.7 103530 83
2008-02-07 07:51:26 51°15.391 2°52.391 10.5 309 4.7 103530 83
2008-02-07 07:51:31 51°15.397 2°52.363 10.3 24 4.7 103520 83
2008-02-07 07:51:36 51°15.403 2°52.336 10.5 305 4.7 103520 83
2008-02-07 07:51:40 51°15.407 2°52.314 8.9 26 4.7 103520 83
2008-02-07 07:51:45 51°15.413 2°52.286 9.3 305 4.7 103520 83
2008-02-07 07:51:50 51°15.418 2°52.258 11 24 4.7 103510 83
2008-02-07 07:51:55 51°15.423 2°52.23 10.3 303 4.7 103510 83
2008-02-07 07:52:00 51°15.427 2°52.201 10.6 22 4.7 103510 83
2008-02-07 07:52:05 51°15.432 2°52.173 10.2 306 4.7 103510 83
2008-02-07 07:52:11 51°15.438 2°52.138 10.7 22 4.7 103510 83
2008-02-07 07:52:15 51°15.442 2°52.116 10.2 306 4.7 103510 83
2008-02-07 07:52:20 51°15.446 2°52.087 8.5 23 4.7 103510 83
2008-02-07 07:52:25 51°15.451 2°52.058 9.9 305 4.7 103510 83
2008-02-07 07:52:31 51°15.457 2°52.024 8.4 21 4.7 103510 83
2008-02-07 07:52:36 51°15.461 2°51.995 10.7 303 4.7 103510 83
2008-02-07 07:52:40 51°15.465 2°51.972 10.5 25 4.7 103510 82
2008-02-07 07:52:45 51°15.468 2°51.943 10.5 307 4.7 103510 82
2008-02-07 07:52:50 51°15.472 2°51.914 10.3 23 4.7 103500 83
2008-02-07 07:52:55 51°15.475 2°51.885 10 310 4.7 103500 83
2008-02-07 07:53:00 51°15.477 2°51.855 10.6 24 4.7 103500 82
2008-02-07 07:53:05 51°15.479 2°51.825 8.9 302 4.7 103500 82
2008-02-07 07:53:11 51°15.481 2°51.789 9.6 25 4.7 103500 82
2008-02-07 07:53:15 51°15.481 2°51.765 11.7 305 4.7 103500 82
2008-02-07 07:53:20 51°15.482 2°51.736 9 24 4.7 103510 83
2008-02-07 07:53:25 51°15.483 2°51.706 10.4 304 4.7 103510 83
2008-02-07 07:53:31 51°15.483 2°51.67 9.4 25 4.7 103500 83
2008-02-07 07:53:36 51°15.483 2°51.64 9.1 286 4.7 103500 83
2008-02-07 07:53:40 51°15.483 2°51.616 9.4 18 4.7 103500 83
2008-02-07 07:53:46 51°15.483 2°51.58 11.2 281 4.7 103500 83
2008-02-07 07:53:50 51°15.483 2°51.556 12.6 25 4.7 103500 83
2008-02-07 07:53:56 51°15.481 2°51.52 10.3 280 4.7 103500 83
2008-02-07 07:54:00 51°15.48 2°51.496 12.7 24 4.7 103500 83
2008-02-07 07:54:06 51°15.478 2°51.46 11.2 286 4.7 103500 83
2008-02-07 07:54:10 51°15.477 2°51.436 11.9 23 4.7 103530 83
2008-02-07 07:54:15 51°15.475 2°51.406 10.4 282 4.7 103530 83
2008-02-07 07:54:20 51°15.473 2°51.376 10.2 23 4.7 103490 83
2008-02-07 07:54:25 51°15.471 2°51.346 10.5 304 4.7 103490 83
2008-02-07 07:54:30 51°15.469 2°51.316 10.4 24 4.7 103500 83
2008-02-07 07:54:36 51°15.467 2°51.281 13 283 4.7 103500 83
2008-02-07 07:54:40 51°15.466 2°51.257 9.7 23 4.7 103490 83
2008-02-07 07:54:45 51°15.463 2°51.227 11.5 307 4.7 103490 83
2008-02-07 07:54:50 51°15.462 2°51.197 10 21 4.7 103490 83
2008-02-07 07:54:56 51°15.459 2°51.161 12.7 277 4.7 103490 83
2008-02-07 07:55:00 51°15.457 2°51.137 10.1 25 4.7 103490 83
2008-02-07 07:55:05 51°15.456 2°51.107 11.7 308 4.7 103490 83
2008-02-07 07:55:11 51°15.454 2°51.07 9 26 4.7 103490 83
2008-02-07 07:55:16 51°15.452 2°51.04 10.1 282 4.7 103490 83
2008-02-07 07:55:20 51°15.451 2°51.016 10.7 25 4.7 103500 83
2008-02-07 07:55:25 51°15.45 2°50.986 10.9 281 4.7 103500 83
2008-02-07 07:55:31 51°15.449 2°50.95 11.9 25 4.7 103500 84
2008-02-07 07:55:36 51°15.448 2°50.92 9.6 283 4.7 103500 84
2008-02-07 07:55:40 51°15.448 2°50.895 12.6 22 4.7 103490 84
2008-02-07 07:55:45 51°15.447 2°50.865 11.8 282 4.7 103490 84
2008-02-07 07:55:50 51°15.446 2°50.835 10.1 21 4.7 103500 84
2008-02-07 07:55:56 51°15.445 2°50.799 12.2 305 4.7 103500 84
2008-02-07 07:56:00 51°15.444 2°50.775 9.9 27 4.7 103500 84
2008-02-07 07:56:05 51°15.442 2°50.744 9.9 281 4.7 103500 84
2008-02-07 07:56:10 51°15.441 2°50.714 12.9 21 4.7 103500 84
2008-02-07 07:56:16 51°15.438 2°50.678 12.2 282 4.7 103500 84
2008-02-07 07:56:20 51°15.437 2°50.654 12.1 22 4.7 103500 83
2008-02-07 07:56:25 51°15.435 2°50.624 11.1 286 4.7 103500 83
2008-02-07 07:56:30 51°15.434 2°50.594 12.5 27 4.7 103500 83
2008-02-07 07:56:35 51°15.433 2°50.564 10.4 277 4.7 103500 83
2008-02-07 07:56:40 51°15.431 2°50.533 9.8 25 4.7 103500 83
2008-02-07 07:56:46 51°15.429 2°50.497 9.6 284 4.7 103500 83
2008-02-07 07:56:50 51°15.428 2°50.473 11.4 22 4.7 103500 84
2008-02-07 07:56:56 51°15.426 2°50.437 9.5 283 4.7 103500 84
2008-02-07 07:57:00 51°15.425 2°50.412 9.5 20 4.7 103490 84
2008-02-07 07:57:06 51°15.424 2°50.376 8.9 279 4.7 103490 84
2008-02-07 07:57:11 51°15.423 2°50.346 9.7 23 4.6 103490 84
2008-02-07 07:57:16 51°15.422 2°50.316 11.8 285 4.6 103490 84
2008-02-07 07:57:20 51°15.421 2°50.292 11.2 24 4.7 103510 84
2008-02-07 07:57:25 51°15.42 2°50.262 12.7 282 4.7 103510 84
2008-02-07 07:57:31 51°15.419 2°50.226 9.7 22 4.7 103510 84
2008-02-07 07:57:36 51°15.418 2°50.195 10 282 4.7 103510 84
2008-02-07 07:57:40 51°15.416 2°50.171 11.6 21 4.7 103500 84
2008-02-07 07:57:45 51°15.415 2°50.141 11.7 284 4.7 103500 84
2008-02-07 07:57:51 51°15.412 2°50.105 8.9 21 4.7 103500 84
2008-02-07 07:57:56 51°15.411 2°50.075 10.6 304 4.7 103500 84
2008-02-07 07:58:00 51°15.409 2°50.051 11.6 22 4.7 103490 84
2008-02-07 07:58:05 51°15.408 2°50.022 8.9 280 4.7 103490 84
2008-02-07 07:58:10 51°15.407 2°49.992 9.1 21 4.7 103500 84
2008-02-07 07:58:16 51°15.405 2°49.955 9.4 302 4.7 103500 84
2008-02-07 07:58:20 51°15.404 2°49.932 8.9 26 4.7 103500 84
2008-02-07 07:58:25 51°15.402 2°49.901 8.8 281 4.7 103500 84
2008-02-07 07:58:30 51°15.402 2°49.872 9.7 25 4.7 103500 84
2008-02-07 07:58:36 51°15.399 2°49.836 11.7 282 4.7 103500 84
2008-02-07 07:58:40 51°15.399 2°49.812 12.3 22 4.7 103500 84
2008-02-07 07:58:45 51°15.397 2°49.782 10.9 286 4.7 103500 84
2008-02-07 07:58:50 51°15.396 2°49.752 12.7 22 4.7 103500 85
2008-02-07 07:58:55 51°15.395 2°49.722 11.7 283 4.7 103500 85
2008-02-07 07:59:00 51°15.393 2°49.692 11.4 20 4.7 103490 84
2008-02-07 07:59:06 51°15.391 2°49.656 12.2 286 4.7 103490 84
2008-02-07 07:59:10 51°15.39 2°49.632 9.2 27 4.7 103500 84
2008-02-07 07:59:15 51°15.389 2°49.602 11.2 284 4.7 103500 84
2008-02-07 07:59:20 51°15.388 2°49.572 11.2 20 4.7 103500 85
2008-02-07 07:59:26 51°15.387 2°49.536 9 281 4.7 103500 85
2008-02-07 07:59:30 51°15.385 2°49.512 9.6 25 4.7 103490 84
2008-02-07 07:59:36 51°15.384 2°49.476 9.5 278 4.7 103490 84
2008-02-07 07:59:40 51°15.383 2°49.452 12.8 26 4.7 103500 84
2008-02-07 07:59:45 51°15.382 2°49.423 13.3 280 4.7 103500 84
2008-02-07 07:59:51 51°15.381 2°49.387 11.8 25 4.7 103500 85
2008-02-07 07:59:56 51°15.379 2°49.357 12.3 283 4.7 103500 85
2008-02-07 07:59:59 51°15.378 2°49.339 9.9 21 4.7 103480 85
2008-02-07 08:00:05 51°15.377 2°49.303 11.9 281 4.7 103480 85
2008-02-07 08:00:10 51°15.375 2°49.273 12 26 4.7 103490 85
2008-02-07 08:00:16 51°15.374 2°49.238 12 284 4.7 103490 85
2008-02-07 08:00:20 51°15.373 2°49.214 9.2 24 4.7 103490 85
2008-02-07 08:00:25 51°15.371 2°49.184 11.6 281 4.7 103490 85
2008-02-07 08:00:30 51°15.37 2°49.154 11.2 19 4.7 103500 85
2008-02-07 08:00:36 51°15.369 2°49.118 9.8 302 4.7 103500 85
2008-02-07 08:00:40 51°15.368 2°49.095 9.1 21 4.7 103490 85
2008-02-07 08:00:45 51°15.367 2°49.065 10.6 305 4.7 103490 85
2008-02-07 08:00:50 51°15.367 2°49.035 9.9 23 4.7 103500 85
2008-02-07 08:00:56 51°15.366 2°48.999 11.2 281 4.7 103500 85
2008-02-07 08:01:00 51°15.365 2°48.975 8.9 26 4.7 103500 85
2008-02-07 08:01:05 51°15.364 2°48.946 9.9 279 4.7 103500 85
2008-02-07 08:01:11 51°15.363 2°48.91 12.1 24 4.7 103500 85
2008-02-07 08:01:16 51°15.362 2°48.88 9.9 280 4.7 103500 85
2008-02-07 08:01:20 51°15.361 2°48.857 9.2 22 4.7 103490 85
2008-02-07 08:01:26 51°15.359 2°48.821 10.7 281 4.7 103490 85
2008-02-07 08:01:31 51°15.358 2°48.791 11.8 22 4.7 103490 85
2008-02-07 08:01:36 51°15.357 2°48.762 8.8 279 4.7 103490 85
2008-02-07 08:01:40 51°15.356 2°48.738 10.1 26 4.8 103500 85
2008-02-07 08:01:45 51°15.355 2°48.709 10 286 4.8 103500 85
2008-02-07 08:01:50 51°15.354 2°48.679 11.7 26 4.8 103490 85
2008-02-07 08:01:55 51°15.353 2°48.649 13.8 277 4.8 103490 85
2008-02-07 08:02:00 51°15.351 2°48.62 11.2 23 4.8 103500 85
2008-02-07 08:02:05 51°15.35 2°48.59 10.7 285 4.8 103500 85
2008-02-07 08:02:10 51°15.349 2°48.561 10.1 25 4.8 103500 85
2008-02-07 08:02:16 51°15.347 2°48.525 12 281 4.8 103500 85
2008-02-07 08:02:20 51°15.346 2°48.502 9.8 20 4.8 103500 85
2008-02-07 08:02:25 51°15.344 2°48.472 9.6 280 4.8 103500 85
2008-02-07 08:02:30 51°15.343 2°48.443 12.2 21 4.8 103490 85
2008-02-07 08:02:36 51°15.342 2°48.408 12.9 284 4.8 103490 85
2008-02-07 08:02:40 51°15.341 2°48.384 10.5 26 4.8 103500 85
2008-02-07 08:02:45 51°15.34 2°48.356 10.2 281 4.8 103500 85
2008-02-07 08:02:50 51°15.338 2°48.326 11.8 24 4.9 103500 85
2008-02-07 08:02:56 51°15.337 2°48.292 12.3 279 4.9 103500 85
2008-02-07 08:03:00 51°15.335 2°48.269 12 21 4.8 103500 85
2008-02-07 08:03:06 51°15.333 2°48.234 13.2 286 4.8 103500 85
2008-02-07 08:03:10 51°15.333 2°48.211 13.2 26 4.8 103500 85
2008-02-07 08:03:15 51°15.331 2°48.182 12.7 283 4.8 103500 85
2008-02-07 08:03:20 51°15.329 2°48.153 9.6 27 4.9 103500 85
2008-02-07 08:03:25 51°15.328 2°48.124 12 306 4.9 103500 85
2008-02-07 08:03:30 51°15.326 2°48.096 13.2 21 4.8 103490 85
2008-02-07 08:03:36 51°15.325 2°48.061 12.6 284 4.8 103490 85
2008-02-07 08:03:40 51°15.323 2°48.038 11.6 27 4.9 103500 85
2008-02-07 08:03:45 51°15.322 2°48.009 11.9 308 4.9 103500 85
2008-02-07 08:03:51 51°15.32 2°47.974 12.3 22 4.9 103500 85
2008-02-07 08:03:56 51°15.319 2°47.946 12 282 4.9 103500 85
2008-02-07 08:04:00 51°15.318 2°47.922 10.2 21 4.9 103500 85
2008-02-07 08:04:05 51°15.316 2°47.894 12.5 281 4.9 103500 85
2008-02-07 08:04:11 51°15.315 2°47.859 12.3 23 4.9 103500 85
2008-02-07 08:04:16 51°15.313 2°47.83 9.9 279 4.9 103500 85
2008-02-07 08:04:20 51°15.312 2°47.807 12.2 27 4.9 103500 85
2008-02-07 08:04:25 51°15.311 2°47.778 12.6 279 4.9 103500 85
2008-02-07 08:04:30 51°15.31 2°47.75 10.2 23 4.9 103500 85
2008-02-07 08:04:36 51°15.308 2°47.715 10.3 280 4.9 103500 85
2008-02-07 08:04:40 51°15.307 2°47.692 12.8 25 4.9 103490 85
2008-02-07 08:04:45 51°15.306 2°47.663 10.1 282 4.9 103490 85
2008-02-07 08:04:50 51°15.304 2°47.634 13 23 4.9 103500 85
2008-02-07 08:04:56 51°15.302 2°47.599 12.9 284 4.9 103500 85
2008-02-07 08:05:00 51°15.301 2°47.576 9.5 26 4.9 103500 85
2008-02-07 08:05:05 51°15.3 2°47.546 11.2 283 4.9 103500 85
2008-02-07 08:05:10 51°15.299 2°47.517 10.1 25 4.9 103500 84
2008-02-07 08:05:15 51°15.298 2°47.488 12.4 279 4.9 103500 84
2008-02-07 08:05:20 51°15.296 2°47.459 12 26 4.9 103500 84
2008-02-07 08:05:26 51°15.295 2°47.424 12.3 285 4.9 103500 84
2008-02-07 08:05:30 51°15.293 2°47.401 10.1 22 4.9 103500 85
2008-02-07 08:05:35 51°15.292 2°47.371 10.7 283 4.9 103500 85
2008-02-07 08:05:40 51°15.291 2°47.342 9.9 22 4.9 103500 85
2008-02-07 08:05:46 51°15.289 2°47.307 11.8 280 4.9 103500 85
2008-02-07 08:05:50 51°15.288 2°47.284 11.9 21 4.9 103500 85
2008-02-07 08:05:55 51°15.287 2°47.254 11 282 4.9 103500 85
2008-02-07 08:06:00 51°15.286 2°47.225 9.4 23 4.9 103500 84
2008-02-07 08:06:06 51°15.285 2°47.19 12.4 286 4.9 103500 84
2008-02-07 08:06:10 51°15.285 2°47.166 9.3 19 4.9 103500 84
2008-02-07 08:06:16 51°15.284 2°47.131 11.4 282 4.9 103500 84
2008-02-07 08:06:20 51°15.282 2°47.108 10.3 25 4.9 103510 85
2008-02-07 08:06:25 51°15.282 2°47.078 10.4 284 4.9 103510 85
2008-02-07 08:06:31 51°15.28 2°47.043 10.3 23 5 103510 85
2008-02-07 08:06:36 51°15.279 2°47.013 9.4 284 5 103510 85
2008-02-07 08:06:40 51°15.278 2°46.989 12.7 21 5 103500 85
2008-02-07 08:06:45 51°15.276 2°46.96 10.2 277 5 103500 85
2008-02-07 08:06:51 51°15.275 2°46.924 10.1 24 5 103510 85
2008-02-07 08:06:56 51°15.274 2°46.895 11.8 280 5 103510 85
2008-02-07 08:07:00 51°15.273 2°46.871 10 24 5 103510 85
2008-02-07 08:07:05 51°15.273 2°46.841 11.4 283 5 103510 85
2008-02-07 08:07:10 51°15.271 2°46.812 9.4 24 4.9 103500 85
2008-02-07 08:07:15 51°15.27 2°46.782 11.7 280 4.9 103500 85
2008-02-07 08:07:20 51°15.269 2°46.752 9.4 24 4.9 103500 85
2008-02-07 08:07:25 51°15.269 2°46.723 11.6 280 4.9 103500 85
2008-02-07 08:07:30 51°15.268 2°46.693 12.3 21 4.9 103510 84
2008-02-07 08:07:35 51°15.267 2°46.663 9.8 280 4.9 103510 84
2008-02-07 08:07:40 51°15.266 2°46.634 10.7 23 4.9 103510 85
2008-02-07 08:07:45 51°15.264 2°46.604 13.1 286 4.9 103510 85
2008-02-07 08:07:50 51°15.264 2°46.574 10.6 21 5 103510 85
2008-02-07 08:07:55 51°15.263 2°46.544 12.1 282 5 103510 85
2008-02-07 08:08:00 51°15.262 2°46.514 10.4 20 5 103500 85
2008-02-07 08:08:06 51°15.261 2°46.479 9.1 280 5 103500 85
2008-02-07 08:08:10 51°15.26 2°46.455 12.4 20 5 103500 85
2008-02-07 08:08:15 51°15.259 2°46.425 10.3 282 5 103500 85
2008-02-07 08:08:20 51°15.259 2°46.395 10.7 22 5 103500 85
2008-02-07 08:08:26 51°15.258 2°46.359 12.7 283 5 103500 85
2008-02-07 08:08:30 51°15.257 2°46.335 10 23 5 103500 85
2008-02-07 08:08:36 51°15.256 2°46.299 14.3 286 5 103500 85
2008-02-07 08:08:40 51°15.256 2°46.275 13.1 25 5 103510 85
2008-02-07 08:08:45 51°15.255 2°46.245 12.5 282 5 103510 85
2008-02-07 08:08:51 51°15.254 2°46.208 11.1 26 5 103510 85
2008-02-07 08:08:56 51°15.253 2°46.178 9.9 277 5 103510 85
2008-02-07 08:09:00 51°15.252 2°46.154 9.5 24 5 103510 85
2008-02-07 08:09:05 51°15.252 2°46.124 11.1 282 5 103510 85
2008-02-07 08:09:11 51°15.251 2°46.088 11.5 25 5 103510 85
2008-02-07 08:09:16 51°15.25 2°46.058 9.5 284 5 103510 85
2008-02-07 08:09:20 51°15.249 2°46.034 11.5 21 5 103500 85
2008-02-07 08:09:26 51°15.248 2°45.998 11.7 281 5 103500 85
2008-02-07 08:09:30 51°15.247 2°45.974 13.2 23 5 103510 85
2008-02-07 08:09:36 51°15.246 2°45.938 12.9 307 5 103510 85
2008-02-07 08:09:40 51°15.245 2°45.914 10.8 24 5 103510 85
2008-02-07 08:09:46 51°15.244 2°45.878 10.7 283 5 103510 85
2008-02-07 08:09:50 51°15.243 2°45.854 12.9 24 5 103510 85
2008-02-07 08:09:55 51°15.243 2°45.824 11.1 282 5 103510 85
2008-02-07 08:10:00 51°15.241 2°45.794 12.7 25 5.1 103510 85
2008-02-07 08:10:05 51°15.24 2°45.764 11.4 306 5.1 103510 85
2008-02-07 08:10:11 51°15.239 2°45.727 10.6 23 5.1 103500 85
2008-02-07 08:10:16 51°15.238 2°45.698 13.1 277 5.1 103500 85
2008-02-07 08:10:20 51°15.237 2°45.673 10.8 27 5.1 103510 85
2008-02-07 08:10:26 51°15.235 2°45.637 14 280 5.1 103510 85
2008-02-07 08:10:31 51°15.234 2°45.607 12.1 26 5.1 103490 85
2008-02-07 08:10:36 51°15.233 2°45.577 11.2 281 5.1 103490 85
2008-02-07 08:10:40 51°15.232 2°45.553 10.4 24 5.1 103500 85
2008-02-07 08:10:45 51°15.231 2°45.523 10.7 285 5.1 103500 85
2008-02-07 08:10:51 51°15.23 2°45.487 13.3 24 5.1 103510 85
2008-02-07 08:10:56 51°15.229 2°45.457 13.1 282 5.1 103510 85
2008-02-07 08:11:00 51°15.228 2°45.432 13.5 21 5.1 103500 85
2008-02-07 08:11:04 51°15.227 2°45.408 12.3 286 5.1 103500 85
2008-02-07 08:11:10 51°15.226 2°45.372 12.7 23 5.1 103500 85
2008-02-07 08:11:16 51°15.224 2°45.336 12.9 281 5.1 103500 85
2008-02-07 08:11:20 51°15.223 2°45.312 13.1 20 5.1 103510 85
2008-02-07 08:11:25 51°15.222 2°45.282 10 283 5.1 103510 85
2008-02-07 08:11:30 51°15.221 2°45.252 10.4 22 5.1 103500 85
2008-02-07 08:11:35 51°15.22 2°45.222 10.6 302 5.1 103500 85
2008-02-07 08:11:40 51°15.219 2°45.191 10.2 21 5.1 103500 85
2008-02-07 08:11:45 51°15.218 2°45.161 13.1 278 5.1 103500 85
2008-02-07 08:11:50 51°15.217 2°45.131 13.1 27 5.1 103510 85
2008-02-07 08:11:56 51°15.216 2°45.095 13.7 285 5.1 103510 85
2008-02-07 08:12:00 51°15.215 2°45.071 13.5 22 5.1 103500 85
2008-02-07 08:12:05 51°15.214 2°45.041 13.6 286 5.1 103500 85
2008-02-07 08:12:10 51°15.213 2°45.01 12.5 25 5.1 103500 85
2008-02-07 08:12:15 51°15.212 2°44.98 13.7 285 5.1 103500 85
2008-02-07 08:12:20 51°15.211 2°44.95 11.8 19 5.1 103500 85
2008-02-07 08:12:26 51°15.209 2°44.914 13.4 282 5.1 103500 85
2008-02-07 08:12:30 51°15.209 2°44.889 13.1 23 5.1 103500 85
2008-02-07 08:12:36 51°15.208 2°44.853 11.2 284 5.1 103500 85
2008-02-07 08:12:40 51°15.206 2°44.829 14.4 22 5.1 103500 85
2008-02-07 08:12:46 51°15.205 2°44.793 14.1 283 5.1 103500 85
2008-02-07 08:12:51 51°15.204 2°44.762 10.9 27 5.1 103500 85
2008-02-07 08:12:56 51°15.203 2°44.732 10.8 284 5.1 103500 85
2008-02-07 08:13:00 51°15.202 2°44.708 14.1 21 5.1 103510 85
2008-02-07 08:13:05 51°15.2 2°44.678 13.3 301 5.1 103510 85
2008-02-07 08:13:11 51°15.199 2°44.642 12.8 23 5.1 103550 84
2008-02-07 08:13:16 51°15.198 2°44.611 10.3 282 5.1 103550 84
2008-02-07 08:13:20 51°15.197 2°44.587 10.9 23 5.1 103570 85
2008-02-07 08:13:25 51°15.196 2°44.557 10.7 285 5.1 103570 85
2008-02-07 08:13:31 51°15.194 2°44.521 13.9 23 5.1 103510 84
2008-02-07 08:13:36 51°15.193 2°44.49 14.3 309 5.1 103510 84
2008-02-07 08:13:40 51°15.192 2°44.466 11.5 21 5.1 103510 85
2008-02-07 08:13:45 51°15.191 2°44.436 13.7 278 5.1 103510 85
2008-02-07 08:13:50 51°15.189 2°44.406 13.3 23 5.1 103510 85
2008-02-07 08:13:56 51°15.187 2°44.369 10.3 306 5.1 103510 85
2008-02-07 08:14:00 51°15.186 2°44.345 11.1 21 5.1 103510 85
2008-02-07 08:14:04 51°15.185 2°44.321 11 283 5.1 103510 85
2008-02-07 08:14:10 51°15.183 2°44.285 10.7 20 5.1 103500 84
2008-02-07 08:14:15 51°15.182 2°44.255 11 283 5.1 103500 84
2008-02-07 08:14:20 51°15.18 2°44.225 11.2 23 5.1 103490 84
2008-02-07 08:14:25 51°15.18 2°44.194 11 307 5.1 103490 84
2008-02-07 08:14:30 51°15.178 2°44.164 13.2 20 5.1 103500 85
2008-02-07 08:14:35 51°15.177 2°44.135 13.9 282 5.1 103500 85
2008-02-07 08:14:40 51°15.176 2°44.105 11.5 25 5.1 103510 85
2008-02-07 08:14:45 51°15.175 2°44.075 10.9 304 5.1 103510 85
2008-02-07 08:14:50 51°15.174 2°44.045 10.9 22 5.1 103510 85
2008-02-07 08:14:56 51°15.172 2°44.009 13.6 287 5.1 103510 85
2008-02-07 08:15:00 51°15.171 2°43.985 12.5 20 5.1 103500 84
2008-02-07 08:15:05 51°15.17 2°43.955 10.6 306 5.1 103500 84
2008-02-07 08:15:10 51°15.169 2°43.925 13 21 5.1 103500 84
2008-02-07 08:15:16 51°15.167 2°43.89 11 280 5.1 103500 84
2008-02-07 08:15:19 51°15.166 2°43.872 10 23 5.1 103500 84
2008-02-07 08:15:25 51°15.164 2°43.836 13.1 282 5.1 103500 84
2008-02-07 08:15:31 51°15.163 2°43.8 10 25 5.1 103500 84
2008-02-07 08:15:35 51°15.162 2°43.776 10.6 282 5.1 103500 84
2008-02-07 08:15:40 51°15.161 2°43.746 12.4 22 5.1 103500 84
2008-02-07 08:15:45 51°15.16 2°43.717 10.4 280 5.1 103500 84
2008-02-07 08:15:50 51°15.158 2°43.687 11 22 5.1 103500 84
2008-02-07 08:15:55 51°15.157 2°43.658 12.5 282 5.1 103500 84
2008-02-07 08:15:59 51°15.156 2°43.634 12.8 21 5.1 103500 85
2008-02-07 08:16:05 51°15.153 2°43.598 12.5 285 5.1 103500 85
2008-02-07 08:16:10 51°15.152 2°43.569 12.5 22 5.1 103510 85
2008-02-07 08:16:15 51°15.15 2°43.539 9.3 308 5.1 103510 85
2008-02-07 08:16:20 51°15.149 2°43.51 11.2 21 5.1 103490 85
2008-02-07 08:16:25 51°15.147 2°43.48 9.4 281 5.1 103490 85
2008-02-07 08:16:30 51°15.146 2°43.45 9.6 21 5.1 103500 85
2008-02-07 08:16:35 51°15.145 2°43.421 10.1 284 5.1 103500 85
2008-02-07 08:16:40 51°15.144 2°43.391 12.6 25 5.1 103500 85
2008-02-07 08:16:45 51°15.144 2°43.361 13.5 278 5.1 103500 85
2008-02-07 08:16:51 51°15.146 2°43.327 9.2 24 5.1 103510 85
2008-02-07 08:16:56 51°15.148 2°43.298 11.9 285 5.1 103510 85
2008-02-07 08:17:00 51°15.15 2°43.274 11 25 5.1 103510 85
2008-02-07 08:17:04 51°15.153 2°43.251 8.5 306 5.1 103510 85
2008-02-07 08:17:10 51°15.157 2°43.217 8.8 19 5.2 103500 85
2008-02-07 08:17:16 51°15.161 2°43.183 8.7 280 5.2 103500 85
2008-02-07 08:17:20 51°15.165 2°43.161 10.8 21 5.2 103510 86
2008-02-07 08:17:25 51°15.169 2°43.132 13.5 306 5.2 103510 86
2008-02-07 08:17:31 51°15.174 2°43.098 13.5 26 5.2 103500 86
2008-02-07 08:17:36 51°15.179 2°43.07 13.1 284 5.2 103500 86
2008-02-07 08:17:40 51°15.182 2°43.047 9.7 21 5.2 103500 86
2008-02-07 08:17:45 51°15.186 2°43.019 12.2 281 5.2 103500 86
2008-02-07 08:17:51 51°15.191 2°42.985 9.9 27 5.2 103500 86
2008-02-07 08:17:56 51°15.195 2°42.957 12.6 284 5.2 103500 86
2008-02-07 08:18:00 51°15.198 2°42.934 12 20 5.2 103510 86
2008-02-07 08:18:05 51°15.202 2°42.906 11.8 284 5.2 103510 86
2008-02-07 08:18:10 51°15.207 2°42.877 9.8 25 5.2 103500 86
2008-02-07 08:18:16 51°15.212 2°42.843 9.6 305 5.2 103500 86
2008-02-07 08:18:20 51°15.215 2°42.82 12.3 22 5.2 103500 85
2008-02-07 08:18:25 51°15.219 2°42.792 11.7 282 5.2 103500 85
2008-02-07 08:18:30 51°15.223 2°42.764 12.2 24 5.2 103500 85
2008-02-07 08:18:36 51°15.228 2°42.729 11.3 279 5.2 103500 85
2008-02-07 08:18:40 51°15.231 2°42.707 8.8 22 5.2 103510 86
2008-02-07 08:18:45 51°15.235 2°42.678 11.1 280 5.2 103510 86
2008-02-07 08:18:50 51°15.239 2°42.65 8.9 26 5.2 103500 85
2008-02-07 08:18:55 51°15.243 2°42.621 8.6 283 5.2 103500 85
2008-02-07 08:19:00 51°15.246 2°42.593 9.5 25 5.2 103500 85
2008-02-07 08:19:06 51°15.251 2°42.559 10.3 279 5.2 103500 85
2008-02-07 08:19:10 51°15.254 2°42.536 12.4 21 5.2 103500 86
2008-02-07 08:19:15 51°15.258 2°42.508 9.7 279 5.2 103500 86
2008-02-07 08:19:20 51°15.262 2°42.48 12.6 21 5.3 103500 86
2008-02-07 08:19:26 51°15.267 2°42.445 9.6 282 5.3 103500 86
2008-02-07 08:19:30 51°15.27 2°42.423 12.2 24 5.3 103500 86
2008-02-07 08:19:36 51°15.275 2°42.389 9.4 280 5.3 103500 86
2008-02-07 08:19:40 51°15.278 2°42.367 11.9 22 5.3 103490 86
2008-02-07 08:19:46 51°15.282 2°42.333 10.8 305 5.3 103490 86
2008-02-07 08:19:51 51°15.286 2°42.305 12.1 22 5.3 103500 86
2008-02-07 08:19:56 51°15.289 2°42.277 13 279 5.3 103500 86
2008-02-07 08:20:00 51°15.292 2°42.254 12.6 23 5.3 103490 86
2008-02-07 08:20:05 51°15.295 2°42.226 10.1 281 5.3 103490 86
2008-02-07 08:20:11 51°15.3 2°42.192 10.4 21 5.3 103500 86
2008-02-07 08:20:16 51°15.303 2°42.164 9.8 280 5.3 103500 86
2008-02-07 08:20:20 51°15.306 2°42.141 9.3 23 5.3 103490 86
2008-02-07 08:20:25 51°15.31 2°42.113 13.1 282 5.3 103490 86
2008-02-07 08:20:31 51°15.314 2°42.079 12.9 23 5.3 103500 86
2008-02-07 08:20:36 51°15.318 2°42.05 10.3 309 5.3 103500 86
2008-02-07 08:20:40 51°15.321 2°42.028 12.3 26 5.3 103490 86
2008-02-07 08:20:45 51°15.324 2°42 10.6 285 5.3 103490 86
2008-02-07 08:20:50 51°15.328 2°41.972 9.7 19 5.4 103500 86
2008-02-07 08:20:56 51°15.332 2°41.938 9.4 306 5.4 103500 86
2008-02-07 08:21:00 51°15.336 2°41.915 10.2 23 5.4 103490 86
2008-02-07 08:21:05 51°15.34 2°41.887 11.2 281 5.4 103490 86
2008-02-07 08:21:10 51°15.346 2°41.86 8.8 23 5.3 103490 86
2008-02-07 08:21:15 51°15.353 2°41.834 8.6 280 5.3 103490 86
2008-02-07 08:21:20 51°15.359 2°41.808 8.5 26 5.4 103490 86
2008-02-07 08:21:26 51°15.369 2°41.778 10 286 5.4 103490 86
2008-02-07 08:21:30 51°15.376 2°41.757 9.4 25 5.4 103490 86
2008-02-07 08:21:35 51°15.385 2°41.733 8.7 281 5.4 103490 86
2008-02-07 08:21:40 51°15.394 2°41.709 9.8 25 5.4 103500 86
2008-02-07 08:21:46 51°15.405 2°41.68 11.5 285 5.4 103500 86
2008-02-07 08:21:50 51°15.413 2°41.662 10.3 20 5.4 103500 86
2008-02-07 08:21:56 51°15.424 2°41.633 8.9 281 5.4 103500 86
2008-02-07 08:22:00 51°15.432 2°41.615 10.5 20 5.4 103500 86
2008-02-07 08:22:06 51°15.443 2°41.586 10.6 280 5.4 103500 86
2008-02-07 08:22:11 51°15.452 2°41.562 10.8 19 5.5 103500 86
2008-02-07 08:22:16 51°15.46 2°41.537 11.1 280 5.5 103500 86
2008-02-07 08:22:20 51°15.467 2°41.518 8.3 25 5.4 103500 86
2008-02-07 08:22:25 51°15.476 2°41.493 8.6 280 5.4 103500 86
2008-02-07 08:22:31 51°15.487 2°41.464 9.3 21 5.5 103490 86
2008-02-07 08:22:36 51°15.497 2°41.441 8.1 281 5.5 103490 86
2008-02-07 08:22:40 51°15.504 2°41.421 10.6 24 5.5 103500 86
2008-02-07 08:22:45 51°15.513 2°41.399 12.5 283 5.5 103500 86
2008-02-07 08:22:50 51°15.523 2°41.376 8.6 250 5.5 103500 86
2008-02-07 08:22:55 51°15.534 2°41.353 7.5 283 5.5 103500 86
2008-02-07 08:23:00 51°15.545 2°41.331 10.7 248 5.5 103500 86
2008-02-07 08:23:05 51°15.555 2°41.308 10 306 5.5 103500 86
2008-02-07 08:23:10 51°15.566 2°41.287 10.6 249 5.5 103490 86
2008-02-07 08:23:16 51°15.578 2°41.26 10.1 283 5.5 103490 86
2008-02-07 08:23:20 51°15.587 2°41.241 10.8 251 5.5 103490 85
2008-02-07 08:23:25 51°15.597 2°41.218 10 284 5.5 103490 85
2008-02-07 08:23:31 51°15.609 2°41.19 9.8 247 5.5 103490 85
2008-02-07 08:23:36 51°15.618 2°41.167 10.9 285 5.5 103490 85
2008-02-07 08:23:40 51°15.626 2°41.149 7.6 246 5.5 103490 86
2008-02-07 08:23:46 51°15.638 2°41.12 10.4 282 5.5 103490 86
2008-02-07 08:23:50 51°15.646 2°41.102 7.3 22 5.5 103490 86
2008-02-07 08:23:55 51°15.656 2°41.078 7.5 285 5.5 103490 86
2008-02-07 08:24:00 51°15.666 2°41.055 7.8 21 5.5 103490 86
2008-02-07 08:24:06 51°15.677 2°41.027 8 281 5.5 103490 86
2008-02-07 08:24:10 51°15.685 2°41.008 9.9 22 5.6 103490 86
2008-02-07 08:24:15 51°15.695 2°40.985 10.3 283 5.6 103490 86
2008-02-07 08:24:20 51°15.705 2°40.961 10.4 19 5.6 103490 86
2008-02-07 08:24:26 51°15.717 2°40.933 7.9 278 5.6 103490 86
2008-02-07 08:24:30 51°15.725 2°40.915 7.1 248 5.6 103490 86
2008-02-07 08:24:36 51°15.737 2°40.888 8.2 284 5.6 103490 86
2008-02-07 08:24:40 51°15.745 2°40.869 9.4 21 5.6 103490 86
2008-02-07 08:24:45 51°15.756 2°40.847 8.6 279 5.6 103490 86
2008-02-07 08:24:51 51°15.768 2°40.819 8.3 247 5.6 103490 86
2008-02-07 08:24:56 51°15.778 2°40.797 10.2 287 5.6 103490 86
2008-02-07 08:25:00 51°15.787 2°40.778 7.7 246 5.6 103490 86
2008-02-07 08:25:05 51°15.797 2°40.755 11.5 283 5.6 103490 86
2008-02-07 08:25:10 51°15.807 2°40.731 8.3 247 5.7 103490 86
2008-02-07 08:25:16 51°15.819 2°40.703 9.5 280 5.7 103490 86
2008-02-07 08:25:20 51°15.827 2°40.684 8.4 247 5.7 103490 86
2008-02-07 08:25:26 51°15.838 2°40.656 11.6 282 5.7 103490 86
2008-02-07 08:25:30 51°15.846 2°40.637 10.8 25 5.7 103490 86
2008-02-07 08:25:36 51°15.858 2°40.608 8.8 305 5.7 103490 86
2008-02-07 08:25:40 51°15.866 2°40.589 8.8 245 5.7 103490 86
2008-02-07 08:25:45 51°15.875 2°40.566 10.1 307 5.7 103490 86
2008-02-07 08:25:50 51°15.885 2°40.542 10.6 24 5.7 103540 86
2008-02-07 08:25:55 51°15.895 2°40.519 11.2 283 5.7 103540 86
2008-02-07 08:26:00 51°15.905 2°40.495 8.5 246 5.8 103550 86
2008-02-07 08:26:05 51°15.915 2°40.472 11.6 305 5.8 103550 86
2008-02-07 08:26:10 51°15.925 2°40.448 9 25 5.8 103550 86
2008-02-07 08:26:16 51°15.937 2°40.42 10.3 306 5.8 103550 86
2008-02-07 08:26:20 51°15.945 2°40.401 11.8 19 5.8 103550 86
2008-02-07 08:26:25 51°15.954 2°40.377 11.3 307 5.8 103550 86
2008-02-07 08:26:30 51°15.964 2°40.353 8.8 23 5.8 103550 86
2008-02-07 08:26:36 51°15.975 2°40.324 9.5 285 5.8 103550 86
2008-02-07 08:26:40 51°15.983 2°40.304 9.5 23 5.8 103530 86
2008-02-07 08:26:46 51°15.995 2°40.275 10.4 310 5.8 103530 86
2008-02-07 08:26:51 51°16.004 2°40.251 10.6 18 5.8 103480 86
2008-02-07 08:26:56 51°16.014 2°40.227 12.1 281 5.8 103480 86
2008-02-07 08:27:00 51°16.021 2°40.208 10.8 25 5.8 103480 86
2008-02-07 08:27:06 51°16.033 2°40.179 9.5 280 5.8 103480 86
2008-02-07 08:27:11 51°16.043 2°40.155 12.6 248 5.8 103490 86
2008-02-07 08:27:16 51°16.052 2°40.131 12.3 283 5.8 103490 86
2008-02-07 08:27:20 51°16.059 2°40.112 9 247 5.8 103480 86
2008-02-07 08:27:25 51°16.069 2°40.088 11.3 281 5.8 103480 86
2008-02-07 08:27:30 51°16.079 2°40.064 9.4 24 5.9 103480 86
2008-02-07 08:27:36 51°16.09 2°40.034 12.2 310 5.9 103480 86
2008-02-07 08:27:40 51°16.098 2°40.015 12.7 248 5.9 103480 85
2008-02-07 08:27:45 51°16.107 2°39.991 12 308 5.9 103480 85
2008-02-07 08:27:50 51°16.117 2°39.967 10.2 248 5.9 103520 85
2008-02-07 08:27:56 51°16.129 2°39.938 9.3 305 5.9 103520 85
2008-02-07 08:28:00 51°16.137 2°39.919 9.3 21 5.9 103480 85
2008-02-07 08:28:05 51°16.146 2°39.895 10 286 5.9 103480 85
2008-02-07 08:28:10 51°16.156 2°39.871 10.1 19 5.9 103480 85
2008-02-07 08:28:15 51°16.165 2°39.847 12.3 286 5.9 103480 85
2008-02-07 08:28:20 51°16.175 2°39.823 10.2 22 5.9 103480 85
2008-02-07 08:28:26 51°16.187 2°39.794 12.2 282 5.9 103480 85
2008-02-07 08:28:30 51°16.195 2°39.776 12.1 22 5.9 103480 85
2008-02-07 08:28:35 51°16.205 2°39.752 8.9 282 5.9 103480 85
2008-02-07 08:28:40 51°16.216 2°39.729 9.3 250 5.9 103480 85
2008-02-07 08:28:46 51°16.228 2°39.702 12.4 285 5.9 103480 85
2008-02-07 08:28:50 51°16.237 2°39.683 12.2 251 5.9 103480 85
2008-02-07 08:28:56 51°16.249 2°39.655 8.4 283 5.9 103480 85
2008-02-07 08:29:00 51°16.257 2°39.637 10.6 245 5.9 103490 84
2008-02-07 08:29:06 51°16.27 2°39.609 11.1 307 5.9 103490 84
2008-02-07 08:29:11 51°16.28 2°39.585 10.9 23 5.9 103480 84
2008-02-07 08:29:16 51°16.29 2°39.562 11.8 283 5.9 103480 84
2008-02-07 08:29:20 51°16.299 2°39.544 11.5 250 5.9 103480 84
2008-02-07 08:29:25 51°16.309 2°39.521 11.6 282 5.9 103480 84
2008-02-07 08:29:31 51°16.322 2°39.492 8.6 251 5.9 103480 84
2008-02-07 08:29:36 51°16.332 2°39.47 8.9 282 5.9 103480 84
2008-02-07 08:29:40 51°16.34 2°39.451 11.8 22 5.9 103480 85
2008-02-07 08:29:46 51°16.353 2°39.424 8.7 280 5.9 103480 85
2008-02-07 08:29:50 51°16.362 2°39.406 8.4 246 6 103480 84
2008-02-07 08:29:56 51°16.375 2°39.378 10.4 305 6 103480 84
2008-02-07 08:30:00 51°16.383 2°39.36 9.1 22 6 103480 84
2008-02-07 08:30:05 51°16.394 2°39.337 11.2 309 6 103480 84
2008-02-07 08:30:10 51°16.404 2°39.314 8.7 250 6 103480 84
2008-02-07 08:30:16 51°16.417 2°39.286 8.3 279 6 103480 84
2008-02-07 08:30:20 51°16.425 2°39.268 11 19 6 103480 84
2008-02-07 08:30:25 51°16.436 2°39.245 10.7 304 6 103480 84
2008-02-07 08:30:31 51°16.448 2°39.217 8.9 249 6 103490 84
2008-02-07 08:30:36 51°16.459 2°39.194 9.4 279 6 103490 84
2008-02-07 08:30:40 51°16.468 2°39.176 9 251 6 103480 84
2008-02-07 08:30:45 51°16.478 2°39.153 9.7 310 6 103480 84
2008-02-07 08:30:50 51°16.489 2°39.131 9.3 248 6 103480 84
2008-02-07 08:30:55 51°16.5 2°39.108 12.1 284 6 103480 84
2008-02-07 08:31:00 51°16.511 2°39.085 10.9 255 6 103480 84
2008-02-07 08:31:06 51°16.523 2°39.058 8.9 284 6 103480 84
2008-02-07 08:31:10 51°16.532 2°39.039 8.1 246 6 103480 84
2008-02-07 08:31:15 51°16.542 2°39.016 9 279 6 103480 84
2008-02-07 08:31:20 51°16.552 2°38.993 10.7 22 6 103480 84
2008-02-07 08:31:25 51°16.562 2°38.97 12.4 284 6 103480 84
2008-02-07 08:31:30 51°16.572 2°38.946 9.6 249 6.1 103470 84
2008-02-07 08:31:36 51°16.584 2°38.918 9 283 6.1 103470 84
2008-02-07 08:31:40 51°16.592 2°38.899 8.7 19 6.1 103470 84
2008-02-07 08:31:45 51°16.602 2°38.875 12.6 281 6.1 103470 84
2008-02-07 08:31:50 51°16.612 2°38.852 12.8 248 6.1 103480 84
2008-02-07 08:31:56 51°16.624 2°38.824 9.7 -999 6.1 103480 84
2008-02-07 08:32:00 51°16.632 2°38.805 7.4 19 6.1 103470 84
2008-02-07 08:32:06 51°16.644 2°38.777 9.1 279 6.1 103470 84
2008-02-07 08:32:10 51°16.652 2°38.759 7 22 6.1 103470 84
2008-02-07 08:32:16 51°16.665 2°38.731 9.8 280 6.1 103470 84
2008-02-07 08:32:20 51°16.673 2°38.712 9.9 21 6.1 103480 84
2008-02-07 08:32:26 51°16.685 2°38.684 10 284 6.1 103480 84
2008-02-07 08:32:30 51°16.692 2°38.666 10.2 249 6.1 103480 84
2008-02-07 08:32:35 51°16.702 2°38.642 10.6 284 6.1 103480 84
2008-02-07 08:32:40 51°16.713 2°38.619 11.2 26 6.1 103480 84
2008-02-07 08:32:46 51°16.724 2°38.591 11.8 279 6.1 103480 84
2008-02-07 08:32:50 51°16.732 2°38.572 10.7 247 6.1 103470 84
2008-02-07 08:32:56 51°16.745 2°38.544 8 280 6.1 103470 84
2008-02-07 08:33:00 51°16.753 2°38.526 9.5 247 6.1 103470 84
2008-02-07 08:33:05 51°16.763 2°38.503 9.5 305 6.1 103470 84
2008-02-07 08:33:11 51°16.775 2°38.474 10.9 251 6.2 103470 84
2008-02-07 08:33:16 51°16.785 2°38.451 11.4 282 6.2 103470 84
2008-02-07 08:33:20 51°16.793 2°38.432 9.8 21 6.2 103480 84
2008-02-07 08:33:25 51°16.803 2°38.408 9.3 307 6.2 103480 84
2008-02-07 08:33:31 51°16.816 2°38.378 11 20 6.2 103470 84
2008-02-07 08:33:36 51°16.827 2°38.353 11.1 283 6.2 103470 84
2008-02-07 08:33:40 51°16.836 2°38.333 10.8 23 6.2 103470 84
2008-02-07 08:33:45 51°16.847 2°38.308 10.3 281 6.2 103470 84
2008-02-07 08:33:51 51°16.86 2°38.28 11.9 22 6.2 103480 84
2008-02-07 08:33:56 51°16.871 2°38.256 11.4 307 6.2 103480 84
2008-02-07 08:34:00 51°16.88 2°38.237 10.6 20 6.2 103480 84
2008-02-07 08:34:05 51°16.892 2°38.213 11.7 283 6.2 103480 84
2008-02-07 08:34:10 51°16.902 2°38.19 11.6 19 6.2 103480 84
2008-02-07 08:34:16 51°16.916 2°38.162 9.5 283 6.2 103480 84
2008-02-07 08:34:20 51°16.924 2°38.143 11.3 248 6.2 103480 84
2008-02-07 08:34:25 51°16.935 2°38.119 8.1 286 6.2 103480 84
2008-02-07 08:34:30 51°16.946 2°38.095 8.8 249 6.2 103480 84
2008-02-07 08:34:36 51°16.959 2°38.067 10.8 284 6.2 103480 84
2008-02-07 08:34:40 51°16.967 2°38.048 12.4 247 6.2 103470 84
2008-02-07 08:34:46 51°16.98 2°38.02 12 284 6.2 103470 84
2008-02-07 08:34:50 51°16.988 2°38 11.4 247 6.2 103480 84
2008-02-07 08:34:55 51°16.999 2°37.977 10.5 284 6.2 103480 84
2008-02-07 08:35:00 51°17.009 2°37.953 9.2 21 6.2 103470 84
2008-02-07 08:35:06 51°17.021 2°37.924 9 280 6.2 103470 84
2008-02-07 08:35:10 51°17.029 2°37.905 11.1 246 6.2 103480 84
2008-02-07 08:35:16 51°17.042 2°37.876 11.9 284 6.2 103480 84
2008-02-07 08:35:20 51°17.05 2°37.857 13 21 6.2 103470 84
2008-02-07 08:35:26 51°17.062 2°37.828 10.1 281 6.2 103470 84
2008-02-07 08:35:31 51°17.073 2°37.804 12.7 248 6.2 103470 84
2008-02-07 08:35:36 51°17.083 2°37.781 12.8 284 6.2 103470 84
2008-02-07 08:35:40 51°17.092 2°37.762 12.6 22 6.2 103480 84
2008-02-07 08:35:45 51°17.102 2°37.738 12.6 304 6.2 103480 84
2008-02-07 08:35:51 51°17.114 2°37.709 12.3 20 6.2 103470 84
2008-02-07 08:35:56 51°17.124 2°37.685 12 282 6.2 103470 84
2008-02-07 08:36:00 51°17.133 2°37.666 13.5 247 6.2 103470 83
2008-02-07 08:36:05 51°17.143 2°37.642 11 286 6.2 103470 83
2008-02-07 08:36:11 51°17.156 2°37.614 13.1 251 6.2 103470 83
2008-02-07 08:36:16 51°17.166 2°37.59 12.3 307 6.2 103470 83
2008-02-07 08:36:20 51°17.174 2°37.57 12 250 6.2 103470 83
2008-02-07 08:36:25 51°17.184 2°37.546 11.5 309 6.2 103470 83
2008-02-07 08:36:30 51°17.194 2°37.522 9.4 249 6.2 103470 83
2008-02-07 08:36:36 51°17.206 2°37.493 12 307 6.2 103470 83
2008-02-07 08:36:40 51°17.215 2°37.474 9.2 246 6.2 103460 83
2008-02-07 08:36:45 51°17.225 2°37.45 7.9 281 6.2 103460 83
2008-02-07 08:36:50 51°17.235 2°37.426 12.7 23 6.2 103470 83
2008-02-07 08:36:56 51°17.247 2°37.398 11.5 282 6.2 103470 83
2008-02-07 08:37:00 51°17.256 2°37.379 12.4 248 6.2 103470 83
2008-02-07 08:37:06 51°17.268 2°37.351 11.6 286 6.2 103470 83
2008-02-07 08:37:10 51°17.277 2°37.332 8.3 246 6.2 103470 83
2008-02-07 08:37:15 51°17.287 2°37.308 9.6 283 6.2 103470 83
2008-02-07 08:37:20 51°17.297 2°37.285 12 251 6.2 103470 83
2008-02-07 08:37:26 51°17.31 2°37.256 9.6 279 6.2 103470 83
2008-02-07 08:37:30 51°17.318 2°37.238 8.8 249 6.2 103470 83
2008-02-07 08:37:35 51°17.328 2°37.214 11 285 6.2 103470 83
2008-02-07 08:37:40 51°17.338 2°37.19 9.3 247 6.2 103470 83
2008-02-07 08:37:46 51°17.351 2°37.161 11.2 285 6.2 103470 83
2008-02-07 08:37:50 51°17.358 2°37.142 9.6 249 6.2 103480 83
2008-02-07 08:37:56 51°17.37 2°37.113 9 281 6.2 103480 83
2008-02-07 08:38:00 51°17.378 2°37.094 10.3 246 6.2 103470 83
2008-02-07 08:38:06 51°17.391 2°37.065 9.7 303 6.2 103470 83
2008-02-07 08:38:11 51°17.4 2°37.041 8.4 246 6.2 103480 83
2008-02-07 08:38:16 51°17.41 2°37.017 9.6 281 6.2 103480 83
2008-02-07 08:38:20 51°17.418 2°36.997 12.7 25 6.2 103460 83
2008-02-07 08:38:26 51°17.43 2°36.969 13.3 283 6.2 103460 83
2008-02-07 08:38:31 51°17.44 2°36.944 12.8 20 6.2 103470 83
2008-02-07 08:38:36 51°17.45 2°36.92 12.7 278 6.2 103470 83
2008-02-07 08:38:40 51°17.458 2°36.901 11.8 23 6.2 103470 83
2008-02-07 08:38:45 51°17.468 2°36.877 10.1 283 6.2 103470 83
2008-02-07 08:38:50 51°17.479 2°36.854 10.9 247 6.2 103480 83
2008-02-07 08:38:56 51°17.491 2°36.825 8.6 280 6.2 103480 83
2008-02-07 08:39:00 51°17.499 2°36.806 8.6 21 6.2 103460 83
2008-02-07 08:39:05 51°17.509 2°36.782 9.9 305 6.2 103460 83
2008-02-07 08:39:10 51°17.519 2°36.758 9.5 21 6.2 103460 83
2008-02-07 08:39:16 51°17.531 2°36.729 10.6 286 6.2 103460 83
2008-02-07 08:39:20 51°17.539 2°36.71 8.9 248 6.2 103470 83
2008-02-07 08:39:25 51°17.55 2°36.686 8.5 302 6.2 103470 83
2008-02-07 08:39:31 51°17.562 2°36.658 10.6 249 6.2 103470 83
2008-02-07 08:39:36 51°17.572 2°36.634 8.5 284 6.2 103470 83
2008-02-07 08:39:40 51°17.58 2°36.616 8.5 22 6.2 103470 83
2008-02-07 08:39:46 51°17.592 2°36.587 9.5 279 6.2 103470 83
2008-02-07 08:39:50 51°17.601 2°36.568 11.6 248 6.2 103470 83
2008-02-07 08:39:55 51°17.611 2°36.545 12 283 6.2 103470 83
2008-02-07 08:40:00 51°17.621 2°36.521 12.5 22 6.2 103470 83
2008-02-07 08:40:06 51°17.634 2°36.493 11.7 282 6.2 103470 83
2008-02-07 08:40:10 51°17.641 2°36.474 10.5 246 6.2 103470 83
2008-02-07 08:40:16 51°17.654 2°36.446 11.4 282 6.2 103470 83
2008-02-07 08:40:20 51°17.661 2°36.426 12.3 20 6.2 103470 83
2008-02-07 08:40:26 51°17.674 2°36.398 12.4 305 6.2 103470 83
2008-02-07 08:40:31 51°17.684 2°36.375 8.3 251 6.2 103480 83
2008-02-07 08:40:36 51°17.694 2°36.351 8.5 281 6.2 103480 83
2008-02-07 08:40:40 51°17.702 2°36.332 8.5 246 6.2 103470 83
2008-02-07 08:40:45 51°17.713 2°36.309 11.3 281 6.2 103470 83
2008-02-07 08:40:51 51°17.725 2°36.281 11.3 23 6.2 103470 83
2008-02-07 08:40:56 51°17.735 2°36.257 11.2 282 6.2 103470 83
2008-02-07 08:41:00 51°17.743 2°36.238 10.8 248 6.2 103470 83
2008-02-07 08:41:06 51°17.755 2°36.21 12.1 280 6.2 103470 83
2008-02-07 08:41:10 51°17.764 2°36.192 8.9 250 6.2 103480 83
2008-02-07 08:41:16 51°17.776 2°36.163 10.5 308 6.2 103480 83
2008-02-07 08:41:20 51°17.784 2°36.144 8.8 26 6.2 103480 83
2008-02-07 08:41:25 51°17.794 2°36.121 8.9 304 6.2 103480 83
2008-02-07 08:41:30 51°17.805 2°36.098 11.8 20 6.2 103470 83
2008-02-07 08:41:36 51°17.817 2°36.07 9.8 302 6.2 103470 83
2008-02-07 08:41:40 51°17.826 2°36.051 8.8 21 6.2 103480 83
2008-02-07 08:41:45 51°17.836 2°36.027 11.7 308 6.2 103480 83
2008-02-07 08:41:51 51°17.849 2°35.999 8.9 250 6.2 103470 84
2008-02-07 08:41:56 51°17.859 2°35.976 10.2 283 6.2 103470 84
2008-02-07 08:42:00 51°17.867 2°35.957 8.3 25 6.2 103480 83
2008-02-07 08:42:05 51°17.878 2°35.934 9.3 305 6.2 103480 83
2008-02-07 08:42:11 51°17.889 2°35.905 11.7 26 6.2 103480 83
2008-02-07 08:42:16 51°17.9 2°35.882 11.8 284 6.2 103480 83
2008-02-07 08:42:20 51°17.908 2°35.864 8.8 248 6.2 103470 83
2008-02-07 08:42:26 51°17.92 2°35.839 9 280 6.2 103470 83
2008-02-07 08:42:30 51°17.928 2°35.823 8.7 251 6.2 103480 83
2008-02-07 08:42:36 51°17.942 2°35.802 9.8 279 6.2 103480 83
2008-02-07 08:42:40 51°17.951 2°35.789 10.6 259 6.2 103480 83
2008-02-07 08:42:46 51°17.965 2°35.772 9.6 282 6.2 103480 83
2008-02-07 08:42:51 51°17.978 2°35.759 4.9 261 6.2 103490 83
2008-02-07 08:42:56 51°17.99 2°35.748 6.1 286 6.2 103490 83
2008-02-07 08:43:00 51°18 2°35.739 6.2 259 6.2 103500 84
2008-02-07 08:43:05 51°18.012 2°35.729 5.9 280 6.2 103500 84
2008-02-07 08:43:11 51°18.027 2°35.718 6.5 261 6.2 103500 84
2008-02-07 08:43:16 51°18.04 2°35.709 7.3 285 6.2 103500 84
2008-02-07 08:43:20 51°18.05 2°35.703 5.4 263 6.2 103510 83
2008-02-07 08:43:26 51°18.066 2°35.692 4.6 279 6.2 103510 83
2008-02-07 08:43:30 51°18.076 2°35.686 5.6 30 6.2 103510 84
2008-02-07 08:43:36 51°18.091 2°35.676 4.5 304 6.2 103510 84
2008-02-07 08:43:40 51°18.101 2°35.669 3.7 264 6.2 103510 84
2008-02-07 08:43:46 51°18.116 2°35.66 4.7 78 6.2 103510 84
2008-02-07 08:43:50 51°18.126 2°35.654 3.1 26 6.2 103510 84
2008-02-07 08:43:55 51°18.139 2°35.648 3.1 286 6.2 103510 84
2008-02-07 08:44:00 51°18.152 2°35.644 4.2 266 6.2 103510 83
2008-02-07 08:44:06 51°18.168 2°35.64 3.6 12 6.2 103510 83
2008-02-07 08:44:10 51°18.178 2°35.638 4.7 28 6.2 103510 83
2008-02-07 08:44:16 51°18.194 2°35.636 3.9 74 6.2 103510 83
2008-02-07 08:44:20 51°18.204 2°35.637 3.4 23 6.2 103520 83
2008-02-07 08:44:25 51°18.217 2°35.639 3.1 52 6.2 103520 83
2008-02-07 08:44:31 51°18.232 2°35.642 2.4 20 6.2 103520 84
2008-02-07 08:44:36 51°18.244 2°35.647 1.7 78 6.2 103520 84
2008-02-07 08:44:40 51°18.253 2°35.651 1.5 21 6.2 103510 84
2008-02-07 08:44:45 51°18.265 2°35.658 3 41 6.2 103510 84
2008-02-07 08:44:51 51°18.278 2°35.668 3.9 42 6.2 103510 84
2008-02-07 08:44:56 51°18.289 2°35.677 4 36 6.2 103510 84
2008-02-07 08:45:00 51°18.297 2°35.686 4.9 32 6.3 103520 84
2008-02-07 08:45:05 51°18.306 2°35.698 4.2 34 6.3 103520 84
2008-02-07 08:45:11 51°18.318 2°35.713 5.6 35 6.3 103510 84
2008-02-07 08:45:16 51°18.327 2°35.726 4 30 6.3 103510 84
2008-02-07 08:45:20 51°18.334 2°35.736 5.5 30 6.3 103510 84
2008-02-07 08:45:25 51°18.342 2°35.751 5.6 30 6.3 103510 84
2008-02-07 08:45:31 51°18.352 2°35.767 5.4 32 6.3 103510 84
2008-02-07 08:45:36 51°18.36 2°35.781 5.5 36 6.3 103510 84
2008-02-07 08:45:40 51°18.368 2°35.791 4.3 40 6.3 103510 84
2008-02-07 08:45:45 51°18.377 2°35.804 3.2 39 6.3 103510 84
2008-02-07 08:45:50 51°18.387 2°35.815 2.8 30 6.3 103500 84
2008-02-07 08:45:56 51°18.4 2°35.828 2.5 30 6.3 103500 84
2008-02-07 08:46:00 51°18.408 2°35.836 3.7 39 6.3 103520 84
2008-02-07 08:46:06 51°18.42 2°35.85 4.3 34 6.3 103520 84
2008-02-07 08:46:10 51°18.428 2°35.86 5.2 33 6.3 103510 84
2008-02-07 08:46:15 51°18.437 2°35.872 5.5 35 6.3 103510 84
2008-02-07 08:46:20 51°18.446 2°35.886 5.9 31 6.3 103510 84
2008-02-07 08:46:26 51°18.456 2°35.904 6.3 30 6.3 103510 84
2008-02-07 08:46:30 51°18.462 2°35.916 6.8 30 6.3 103520 84
2008-02-07 08:46:36 51°18.471 2°35.934 6.1 27 6.3 103520 84
2008-02-07 08:46:40 51°18.477 2°35.947 6.3 32 6.3 103510 84
2008-02-07 08:46:46 51°18.486 2°35.964 6.1 38 6.3 103510 84
2008-02-07 08:46:51 51°18.495 2°35.978 5.8 34 6.3 103520 84
2008-02-07 08:46:56 51°18.503 2°35.992 6.5 35 6.3 103520 84
2008-02-07 08:47:00 51°18.51 2°36.003 6.1 35 6.3 103520 84
2008-02-07 08:47:05 51°18.519 2°36.016 5.7 34 6.3 103520 84
2008-02-07 08:47:10 51°18.527 2°36.03 5.8 35 6.3 103520 83
2008-02-07 08:47:15 51°18.536 2°36.044 6.5 38 6.3 103520 83
2008-02-07 08:47:20 51°18.544 2°36.059 5.8 39 6.3 103520 83
2008-02-07 08:47:25 51°18.551 2°36.072 5.7 36 6.3 103520 83
2008-02-07 08:47:31 51°18.559 2°36.088 5.9 30 6.3 103520 83
2008-02-07 08:47:36 51°18.566 2°36.1 5.4 34 6.3 103520 83
2008-02-07 08:47:40 51°18.571 2°36.11 6.2 38 6.3 103530 83
2008-02-07 08:47:45 51°18.578 2°36.12 6.7 37 6.3 103530 83
2008-02-07 08:47:51 51°18.584 2°36.132 6.1 42 6.3 103520 83
2008-02-07 08:47:56 51°18.591 2°36.14 6.3 39 6.3 103520 83
2008-02-07 08:48:00 51°18.595 2°36.147 5.8 42 6.3 103520 83
2008-02-07 08:48:04 51°18.599 2°36.153 6 41 6.3 103520 83
2008-02-07 08:48:10 51°18.605 2°36.162 5.8 42 6.3 103520 83
2008-02-07 08:48:16 51°18.611 2°36.169 5.6 42 6.3 103520 83
2008-02-07 08:48:20 51°18.615 2°36.174 5.9 42 6.3 103520 83
2008-02-07 08:48:25 51°18.62 2°36.179 6.7 43 6.3 103520 83
2008-02-07 08:48:30 51°18.625 2°36.185 6.6 27 6.3 103520 83
2008-02-07 08:48:35 51°18.629 2°36.19 7.4 36 6.3 103520 83
2008-02-07 08:48:40 51°18.634 2°36.194 8.2 42 6.3 103520 83
2008-02-07 08:48:45 51°18.638 2°36.199 8.2 44 6.3 103520 83
2008-02-07 08:48:50 51°18.642 2°36.203 7.7 44 6.3 103520 83
2008-02-07 08:48:56 51°18.647 2°36.209 8 43 6.3 103520 83
2008-02-07 08:49:00 51°18.649 2°36.212 7 41 6.3 103520 83
2008-02-07 08:49:05 51°18.653 2°36.217 7.1 38 6.3 103520 83
2008-02-07 08:49:11 51°18.656 2°36.222 7.9 37 6.2 103520 83
2008-02-07 08:49:16 51°18.659 2°36.226 7.1 37 6.2 103520 83
2008-02-07 08:49:20 51°18.661 2°36.23 8.3 34 6.2 103510 82
2008-02-07 08:49:26 51°18.663 2°36.235 8.3 37 6.2 103510 82
2008-02-07 08:49:31 51°18.665 2°36.24 8.3 33 6.2 103510 83
2008-02-07 08:49:36 51°18.666 2°36.244 8.5 37 6.2 103510 83
2008-02-07 08:49:40 51°18.667 2°36.247 8.5 37 6.3 103510 83
2008-02-07 08:49:46 51°18.668 2°36.252 9 37 6.3 103510 83
2008-02-07 08:49:51 51°18.67 2°36.255 9 36 6.3 103510 83
2008-02-07 08:49:56 51°18.67 2°36.259 8.7 35 6.3 103510 83
2008-02-07 08:50:00 51°18.671 2°36.261 8.2 34 6.3 103510 83
2008-02-07 08:50:05 51°18.672 2°36.264 7.9 38 6.3 103510 83
2008-02-07 08:50:11 51°18.673 2°36.267 9.5 35 6.3 103500 83
2008-02-07 08:50:16 51°18.674 2°36.27 8.5 38 6.3 103500 83
2008-02-07 08:50:20 51°18.675 2°36.272 9 37 6.3 103500 83
2008-02-07 08:50:25 51°18.675 2°36.274 9 35 6.3 103500 83
2008-02-07 08:50:31 51°18.676 2°36.276 9.1 32 6.3 103500 83
2008-02-07 08:50:36 51°18.676 2°36.278 9.6 35 6.3 103500 83
2008-02-07 08:50:40 51°18.676 2°36.279 10.4 34 6.3 103500 83
2008-02-07 08:50:45 51°18.676 2°36.281 9.3 34 6.3 103500 83
2008-02-07 08:50:51 51°18.677 2°36.283 10.4 32 6.3 103510 83
2008-02-07 08:50:56 51°18.677 2°36.283 10 35 6.3 103510 83
2008-02-07 08:51:00 51°18.677 2°36.284 10.6 32 6.3 103500 83
2008-02-07 08:51:04 51°18.676 2°36.284 10.6 33 6.3 103500 83
2008-02-07 08:51:10 51°18.676 2°36.283 9.8 34 6.3 103500 83
2008-02-07 08:51:16 51°18.676 2°36.281 9.2 34 6.3 103500 83
2008-02-07 08:51:20 51°18.675 2°36.281 9.6 33 6.3 103500 83
2008-02-07 08:51:25 51°18.675 2°36.279 9.2 32 6.3 103500 83
2008-02-07 08:51:30 51°18.675 2°36.279 9.7 29 6.3 103500 82
2008-02-07 08:51:35 51°18.675 2°36.278 9.2 30 6.3 103500 82
2008-02-07 08:51:40 51°18.674 2°36.279 9.3 32 6.3 103500 83
2008-02-07 08:51:45 51°18.675 2°36.28 9.4 34 6.3 103500 83
2008-02-07 08:51:51 51°18.675 2°36.283 9.3 36 6.3 103500 83
2008-02-07 08:51:56 51°18.676 2°36.286 8.7 32 6.3 103500 83
2008-02-07 08:52:00 51°18.676 2°36.289 7.8 40 6.3 103490 83
2008-02-07 08:52:05 51°18.678 2°36.292 8.4 42 6.3 103490 83
2008-02-07 08:52:11 51°18.681 2°36.296 7.6 24 6.3 103490 83
2008-02-07 08:52:16 51°18.683 2°36.299 7.2 75 6.3 103490 83
2008-02-07 08:52:20 51°18.685 2°36.3 8.3 24 6.3 103500 83
2008-02-07 08:52:26 51°18.688 2°36.302 9.3 75 6.3 103500 83
2008-02-07 08:52:30 51°18.689 2°36.303 7.9 25 6.3 103510 83
2008-02-07 08:52:36 51°18.692 2°36.304 8.4 57 6.3 103510 83
2008-02-07 08:52:40 51°18.693 2°36.305 8.2 27 6.3 103520 83
2008-02-07 08:52:46 51°18.694 2°36.305 8.8 80 6.3 103520 83
2008-02-07 08:52:50 51°18.694 2°36.304 7.1 27 6.3 103520 83
2008-02-07 08:52:56 51°18.695 2°36.303 6.8 82 6.3 103520 83
2008-02-07 08:53:00 51°18.696 2°36.303 6.7 26 6.3 103520 83
2008-02-07 08:53:05 51°18.696 2°36.302 5.9 55 6.3 103520 83
2008-02-07 08:53:11 51°18.697 2°36.3 5.7 21 6.2 103520 82
2008-02-07 08:53:16 51°18.697 2°36.3 6.1 80 6.2 103520 82
2008-02-07 08:53:20 51°18.698 2°36.299 5.6 25 6.2 103520 82
2008-02-07 08:53:25 51°18.698 2°36.298 6.2 50 6.2 103520 82
2008-02-07 08:53:31 51°18.699 2°36.297 4.8 18 6.2 103520 82
2008-02-07 08:53:36 51°18.7 2°36.296 5.8 75 6.2 103520 82
2008-02-07 08:53:40 51°18.7 2°36.295 4 26 6.3 103520 83